Hourly Data Report for September 13, 2017

All times are specified in Local Standard Time (LST). Add 1 hour to adjust for Daylight Saving Time where and when it is observed.

COMOX A
BRITISH COLUMBIA

49°43'00.000" N
124°54'00.000" W
25.60 m
1021830
71893
YQQ

Download Data

Hourly Data (September 2017)
Hourly Data Report for September 13, 2017
Temp Definition
°C
Dew Point Temp Definition
°C
Rel Hum Definition
%
Wind Dir Definition
10's deg

Wind Spd Definition
km/h
Visibility Definition
km
Stn Press Definition
kPa
Hmdx Definition


Wind Chill Definition


Weather Definition


TIME
00:00 13.3 6.9 65 33 19 32.2 101.25     Mainly Clear
01:00 13.1 6.4 64 32 17 32.2 101.23     Clear
02:00 12.7 6.6 66 32 13 32.2 101.25     Mainly Clear
03:00 12.8 7.1 68 33 19 32.2 101.24     Mainly Clear
04:00 13.0 7.1 67 33 19 32.2 101.24     Mainly Clear
05:00 12.9 7.3 69 32 15 32.2 101.25     Mainly Clear
06:00 12.8 7.3 69 33 19 32.2 101.28     Mainly Clear
07:00 13.7 7.4 66 33 20 32.2 101.30     Clear
08:00 14.7 7.8 63 34 24 32.2 101.31     Clear
09:00 15.9 8.5 61 35 20 32.2 101.33     Clear
10:00 16.6 8.9 60 35 22 32.2 101.33     Clear
11:00 17.6 9.2 58 1 17 32.2 101.32     Clear
12:00 17.8 8.9 56 2 19 32.2 101.30     Clear
13:00 18.9 8.9 52 2 13 32.2 101.28     Clear
14:00 19.9 7.8 46 36 7 32.2 101.23     Clear
15:00 20.9 6.7 40 36 9 32.2 101.18     Mainly Clear
16:00 21.1 6.9 40 1 9 32.2 101.15     Mainly Clear
17:00 21.1 5.3 36 34 9 32.2 101.10     Mainly Clear
18:00 20.8 3.7 32 33 11 32.2 101.08     Mainly Clear
19:00 19.2 3.9 36 33 19 32.2 101.09     Mainly Clear
20:00 18.5 3.9 38 32 13 32.2 101.13     Clear
21:00 18.6 3.7 37 32 17 32.2 101.15     Clear
22:00 18.3 3.9 38 32 20 32.2 101.16     Clear
23:00 17.8 4.1 40 33 20 32.2 101.18     Clear

Notes on Data Quality.

Legend

  • E = Estimated
  • M = Missing
  • NA = Not Available
  • ‡ = Partner data that is not subject to review by the National Climate Archives
Date modified: